[[{"header":{"parameterUnit":"m.s-1","parameterCategory":1,"la1":30.2991,"la2":30.254,"lo1":-89.0895,"lo2":-89.0444,"dy":0.0017,"dx":0.0017,"nx":28,"ny":28,"refTime":"2024-03-16T09:00:00:Z","depth":0,"parameterNumber":2,"parameterNumberName":"U-component_of_WINDS"},"data":[0,0,0,0,0,0,0,0,0,0,0,0,0,0,0,0,0,0,0,0,0,0,0,0,0,0,0,0,0,0,0,0,0,0,0,0,0,0,0,0,0,0,0,0,0,0,0,0,0,0,0,0,0,0,0,0,0,0,-2.6961,-2.6963,0,-2.7102,-2.7104,-2.7105,-2.7089,-2.7086,-2.7084,-2.7082,-2.7231,-2.7237,-2.7243,0,0,0,0,0,0,0,0,0,0,0,0,0,-2.6681,-2.6686,-2.6961,-2.6963,-2.6965,-2.7102,-2.7104,-2.7106,-2.7089,-2.7086,-2.7084,-2.7081,-2.7229,-2.7236,-2.7243,0,0,0,0,0,0,0,0,0,0,0,0,0,-2.6811,-2.6688,-2.6961,-2.6973,-2.6975,-2.7101,-2.7104,-2.7106,-2.709,-2.7086,-2.7083,-2.708,-2.7226,-2.7235,-2.7244,-2.7368,0,0,-2.7272,-2.7276,0,0,0,0,0,0,0,0,-2.6803,-2.6821,-2.6969,-2.6972,-2.6975,-2.7074,-2.7059,-2.7194,-2.7091,-2.7046,-2.7082,-2.7078,-2.7182,-2.7194,-2.7228,-2.7375,-2.7382,-2.7273,-2.7278,-2.7282,-2.7285,0,0,0,0,0,0,0,-2.6794,-2.6815,-2.7017,-2.6972,-2.6975,-2.6972,-2.6987,-2.7085,-2.7132,-2.705,-2.7049,-2.7066,-2.7183,-2.7219,-2.7232,-2.7384,-2.7272,-2.7281,-2.7286,-2.729,-2.7639,-2.7643,0,0,0,0,0,0,-2.6782,-2.6807,-2.7012,-2.7021,-2.6879,-2.698,-2.6996,-2.7046,-2.713,-2.714,-2.7069,-2.7064,-2.7206,-2.7221,-2.7237,-2.7388,-2.7282,-2.7291,-2.7296,-2.7636,-2.764,-2.7644,0,0,0,0,0,0,-2.6776,-2.68,-2.7007,-2.6914,-2.694,-2.6988,-2.7044,-2.7051,-2.7087,-2.7144,-2.7153,-2.7097,-2.7204,-2.7224,-2.7335,-2.7393,-2.7295,-2.7303,-2.7631,-2.7637,-2.7642,-2.7691,0,0,0,0,0,0,-2.6768,-2.6798,-2.6845,-2.6915,-2.6945,-2.7103,-2.7048,-2.7056,-2.7103,-2.7099,-2.7174,-2.7183,-2.7202,-2.7322,-2.7344,-2.7404,-2.731,-2.7626,-2.7634,-2.764,-2.7685,-2.7698,-2.7709,0,0,0,0,0,-2.6758,-2.6855,-2.6848,-2.6873,-2.7005,-2.7106,-2.7123,-2.7142,-2.7107,-2.7156,-2.7192,-2.7181,-2.7382,-2.7333,-2.7359,-2.7421,-2.7623,-2.7632,-2.764,-2.7679,-2.7695,-2.7709,0,0,0,0,0,0,-2.6793,-2.6864,-2.6858,-2.698,-2.7036,-2.7103,-2.7165,-2.7159,-2.7228,-2.7222,-2.7243,-2.7261,-2.7373,-2.7408,-2.7352,-2.7546,-2.7498,-2.7512,-2.7519,-2.7535,-2.7547,-2.7537,-2.7318,0,0,0,0,0,-2.6814,-2.6889,-2.6948,-2.705,-2.7078,-2.7116,-2.7161,-2.717,-2.7231,-2.7256,-2.73,-2.736,-2.7437,-2.7488,-2.7562,-2.7689,-2.7705,-2.7744,-2.7756,-2.7766,-2.7779,-2.7848,-2.7866,-2.7673,-2.7673,-2.7672,0,0,-2.686,-2.6908,-2.6955,-2.7058,-2.7103,-2.7181,-2.7137,-2.7222,-2.728,-2.7269,-2.7377,-2.7411,-2.748,-2.7599,-2.7654,-2.7632,-2.7835,-2.7777,-2.7784,-2.7792,-2.7859,-2.7877,-2.7893,-2.7678,-2.7677,-2.7676,0,0,-2.6984,-2.7028,-2.7117,-2.7163,-2.7231,-2.7255,-2.7276,-2.7343,-2.7365,-2.7473,-2.7466,-2.7536,-2.7668,-2.7717,-2.7759,-2.7898,-2.7891,-2.7922,-2.7987,-2.8054,-2.8069,-2.8083,-2.8133,-2.8151,-2.7934,-2.7934,-2.7934,0,-2.7034,-2.7149,-2.7164,-2.7249,-2.7295,-2.7286,-2.7377,-2.7421,-2.7511,-2.7543,-2.7516,-2.768,-2.7726,-2.7857,-2.789,-2.7924,-2.795,-2.7915,-2.8065,-2.8079,-2.8092,-2.814,-2.8159,-2.7937,-2.7937,-2.7937,-2.7936,0,-2.7206,-2.7287,-2.7351,-2.7435,-2.7488,-2.7576,-2.7605,-2.7657,-2.7661,-2.7688,-2.7797,-2.7851,-2.7935,-2.7967,-2.7973,-2.8098,-2.8082,-2.806,-2.8013,-2.8114,-2.8159,-2.8178,-2.7942,-2.7941,-2.794,-2.7939,0,0,-2.7359,-2.7448,-2.7472,-2.751,-2.7583,-2.7646,-2.7733,-2.7813,-2.7857,-2.7919,-2.7993,-2.8103,-2.8082,-2.813,-2.8141,-2.82,-2.8307,-2.8171,-2.8173,-2.8195,-2.8449,-2.8466,-2.8487,-2.8301,-2.8305,-2.8308,-2.8444,0,-2.7491,-2.7643,-2.7658,-2.7795,-2.787,-2.7861,-2.7937,-2.799,-2.8017,-2.8085,-2.8115,-2.8193,-2.816,-2.8189,-2.8246,-2.8282,-2.8359,-2.8272,-2.8372,-2.8375,-2.8356,-2.8511,-2.853,-2.8655,-2.8461,-2.8464,-2.8467,0,-2.7666,-2.773,-2.7873,-2.7935,-2.7967,-2.8034,-2.8109,-2.8173,-2.8233,-2.8249,-2.8301,-2.8303,-2.8393,-2.8341,-2.8465,-2.8406,-2.8447,-2.8471,-2.8476,-2.8487,-2.8428,-2.8528,-2.8696,-2.8715,-2.8495,-2.8493,-2.8491,0,-2.7763,-2.7886,-2.7987,-2.8019,-2.8094,-2.8141,-2.8175,-2.8231,-2.8278,-2.8343,-2.8374,-2.8449,-2.8491,-2.8549,-2.8572,-2.8531,-2.8696,-2.8645,-2.8712,-2.8712,-2.8749,-2.8746,-2.8927,-2.8773,-2.8773,-2.8772,-2.8772,0,-2.791,-2.7998,-2.8032,-2.8095,-2.8193,-2.8209,-2.8307,-2.8338,-2.8388,-2.8457,-2.8454,-2.852,-2.8545,-2.8614,-2.8632,-2.8733,-2.8752,-2.8767,-2.8772,-2.8769,-2.8767,-2.8797,-2.879,-2.8777,-2.8776,-2.8775,-2.8774,0,-2.8037,-2.8062,-2.8173,-2.8232,-2.8249,-2.832,-2.8371,-2.8432,-2.8457,-2.8544,-2.8566,-2.8606,-2.8687,-2.8714,-2.8814,-2.8826,-2.8943,-2.8939,-2.8922,-2.8924,-2.8989,-2.8983,-2.9197,-2.9226,-2.9052,-2.9053,-2.9055,0,-2.8129,-2.8197,-2.8263,-2.8308,-2.8342,-2.8415,-2.8462,-2.848,-2.853,-2.8602,-2.8654,-2.8734,-2.88,-2.893,-2.8968,-2.9044,-2.9042,-2.9112,-2.9054,-2.9048,-2.9044,-2.9041,-2.9047,-2.9124,-2.9125,-2.9127,-2.9128,0,-2.8291,-2.83,-2.8367,-2.8438,-2.8494,-2.8551,-2.8607,-2.8644,-2.8671,-2.8726,-2.8808,-2.8858,-2.8958,-2.9038,-2.9114,-2.9149,-2.9144,-2.9145,-2.9165,-2.9164,-2.9151,-2.9159,-2.8953,-2.9141,-2.914,-2.9139,-2.9138,-2.9138,-2.8405,-2.8464,-2.8519,-2.8593,-2.8636,-2.8688,-2.8747,-2.8778,-2.8847,-2.8928,-2.8934,-2.9023,-2.908,-2.9182,-2.9221,-2.929,-2.9271,-2.93,-2.9307,-2.9314,-2.9319,-2.9138,-2.9304,-2.9304,-2.9304,-2.9304,-2.9303,0,-2.8567,-2.8601,-2.8669,-2.8746,-2.8804,-2.8791,-2.8851,-2.8901,-2.8979,-2.9032,-2.9095,-2.9189,-2.9265,-2.9308,-2.9385,-2.9433,-2.9432,-2.9452,-2.945,-2.9458,-2.9332,-2.9308,-2.9452,-2.9452,-2.9452,-2.9452,-2.9452,-2.9452,-2.8658,-2.8757,-2.8772,-2.8892,-2.8926,-2.9012,-2.9047,-2.9095,-2.9137,-2.9241,-2.9304,-2.933,-2.938,-2.9459,-2.9529,-2.954,-2.9569,-2.9591,-2.96,-2.9482,-2.9467,-2.9453,-2.943,-2.9597,-2.9598,-2.9721,-2.9722,-2.9723]},{"header":{"parameterUnit":"m.s-1","parameterCategory":1,"la1":30.2991,"la2":30.254,"lo1":-89.0895,"lo2":-89.0444,"dy":0.0017,"dx":0.0017,"nx":28,"ny":28,"refTime":"2024-03-16T09:00:00:Z","depth":0,"parameterNumber":3,"parameterNumberName":"V-component_of_WINDS"},"data":[0,0,0,0,0,0,0,0,0,0,0,0,0,0,0,0,0,0,0,0,0,0,0,0,0,0,0,0,0,0,0,0,0,0,0,0,0,0,0,0,0,0,0,0,0,0,0,0,0,0,0,0,0,0,0,0,0,0,-4.3402,-4.3402,0,-4.3433,-4.3433,-4.3433,-4.337,-4.3368,-4.3366,-4.3364,-4.3395,-4.3397,-4.34,0,0,0,0,0,0,0,0,0,0,0,0,0,-4.3286,-4.3289,-4.3402,-4.3402,-4.3403,-4.3433,-4.3433,-4.3433,-4.3371,-4.3368,-4.3366,-4.3363,-4.3394,-4.3397,-4.34,0,0,0,0,0,0,0,0,0,0,0,0,0,-4.3329,-4.329,-4.3402,-4.3375,-4.3373,-4.3433,-4.3433,-4.3434,-4.3371,-4.3368,-4.3365,-4.3362,-4.3393,-4.3397,-4.3401,-4.3488,0,0,-4.3413,-4.3415,0,0,0,0,0,0,0,0,-4.3326,-4.3333,-4.3379,-4.3377,-4.3375,-4.3394,-4.3403,-4.3452,-4.3372,-4.3372,-4.3364,-4.3361,-4.3397,-4.3401,-4.3413,-4.3489,-4.349,-4.3414,-4.3416,-4.3418,-4.3419,0,0,0,0,0,0,0,-4.3324,-4.3331,-4.3414,-4.3379,-4.3377,-4.336,-4.3363,-4.3412,-4.3401,-4.3372,-4.3367,-4.3372,-4.3395,-4.3409,-4.3413,-4.3491,-4.3413,-4.3417,-4.342,-4.3421,-4.3638,-4.3641,0,0,0,0,0,0,-4.3324,-4.3329,-4.3413,-4.3415,-4.3342,-4.3365,-4.3368,-4.3391,-4.3401,-4.3399,-4.3374,-4.3369,-4.3404,-4.3409,-4.3414,-4.3516,-4.3418,-4.3422,-4.3424,-4.3635,-4.3639,-4.3642,0,0,0,0,0,0,-4.3322,-4.3332,-4.3412,-4.3371,-4.338,-4.337,-4.3397,-4.3393,-4.3407,-4.3403,-4.34,-4.3391,-4.3402,-4.3408,-4.347,-4.3516,-4.3423,-4.3427,-4.3631,-4.3636,-4.364,-4.372,0,0,0,0,0,0,-4.3319,-4.3332,-4.3366,-4.3372,-4.3382,-4.3468,-4.34,-4.3396,-4.3415,-4.3408,-4.3417,-4.3416,-4.34,-4.3464,-4.3474,-4.352,-4.343,-4.3627,-4.3633,-4.3639,-4.3713,-4.3727,-4.3739,0,0,0,0,0,-4.3315,-4.3387,-4.3368,-4.3378,-4.3424,-4.3471,-4.3476,-4.3456,-4.3419,-4.3452,-4.3449,-4.3416,-4.3509,-4.3471,-4.3481,-4.3529,-4.3624,-4.3631,-4.3638,-4.3708,-4.3724,-4.3739,0,0,0,0,0,0,-4.3386,-4.3387,-4.3366,-4.3442,-4.3457,-4.346,-4.3501,-4.3475,-4.35,-4.3493,-4.3466,-4.3469,-4.3535,-4.3538,-4.3495,-4.3613,-4.356,-4.357,-4.3609,-4.3625,-4.3637,-4.3635,-4.3434,0,0,0,0,0,-4.3411,-4.3449,-4.3448,-4.3515,-4.3523,-4.3511,-4.3531,-4.3514,-4.3528,-4.3533,-4.3535,-4.3549,-4.3581,-4.3603,-4.3633,-4.3713,-4.3714,-4.3751,-4.3764,-4.3775,-4.3784,-4.3825,-4.3841,-4.3667,-4.3666,-4.3666,0,0,-4.3462,-4.3467,-4.3493,-4.3529,-4.3539,-4.3578,-4.3517,-4.3561,-4.359,-4.354,-4.3598,-4.3599,-4.3613,-4.3684,-4.3715,-4.3688,-4.3832,-4.3784,-4.3793,-4.3796,-4.3834,-4.3851,-4.3866,-4.3672,-4.3671,-4.367,0,0,-4.3576,-4.3584,-4.364,-4.365,-4.3665,-4.3656,-4.367,-4.3676,-4.3675,-4.3733,-4.3696,-4.3729,-4.3785,-4.3796,-4.381,-4.3925,-4.3895,-4.3935,-4.4003,-4.4044,-4.4057,-4.4069,-4.411,-4.4125,-4.3944,-4.3944,-4.3945,0,-4.3637,-4.3696,-4.3673,-4.3719,-4.3736,-4.3692,-4.3748,-4.3759,-4.3783,-4.3795,-4.3764,-4.3833,-4.384,-4.3912,-4.394,-4.3952,-4.3966,-4.3934,-4.4057,-4.4069,-4.408,-4.4118,-4.4134,-4.3949,-4.3949,-4.3948,-4.3948,0,-4.377,-4.3811,-4.3855,-4.3878,-4.39,-4.3951,-4.3935,-4.3959,-4.394,-4.3934,-4.3992,-4.3998,-4.4027,-4.4043,-4.4025,-4.4112,-4.4095,-4.4062,-4.4008,-4.4102,-4.4137,-4.4152,-4.3956,-4.3954,-4.3953,-4.3952,0,0,-4.3931,-4.394,-4.3956,-4.3966,-4.3978,-4.4008,-4.4057,-4.4086,-4.4106,-4.4123,-4.4163,-4.4211,-4.4179,-4.4194,-4.4177,-4.4213,-4.4303,-4.4174,-4.4174,-4.4197,-4.4398,-4.4424,-4.4441,-4.4283,-4.4285,-4.4288,-4.4397,0,-4.4043,-4.4127,-4.4107,-4.419,-4.4226,-4.4184,-4.4226,-4.4237,-4.4233,-4.4262,-4.4257,-4.4291,-4.4247,-4.4256,-4.4289,-4.4285,-4.4343,-4.4276,-4.4319,-4.432,-4.4317,-4.446,-4.4487,-4.459,-4.4411,-4.4413,-4.4415,0,-4.4185,-4.4207,-4.4294,-4.4298,-4.4313,-4.4351,-4.4375,-4.4404,-4.4415,-4.4409,-4.4425,-4.44,-4.4447,-4.4392,-4.4456,-4.4411,-4.4427,-4.4427,-4.4431,-4.4434,-4.4374,-4.4467,-4.4622,-4.4638,-4.4436,-4.4435,-4.4433,0,-4.4293,-4.4345,-4.4402,-4.4412,-4.4419,-4.4446,-4.445,-4.4459,-4.4477,-4.4497,-4.4508,-4.4534,-4.4548,-4.4568,-4.455,-4.4512,-4.4617,-4.4561,-4.4612,-4.4613,-4.4636,-4.4635,-4.4797,-4.4647,-4.4647,-4.4646,-4.4646,0,-4.442,-4.4475,-4.4451,-4.4487,-4.4546,-4.4521,-4.458,-4.4579,-4.4586,-4.4621,-4.4586,-4.4618,-4.4593,-4.4623,-4.4609,-4.4663,-4.467,-4.4665,-4.4661,-4.4669,-4.4669,-4.4679,-4.4671,-4.465,-4.465,-4.4649,-4.4648,0,-4.4552,-4.4538,-4.4598,-4.4599,-4.46,-4.4644,-4.4644,-4.4677,-4.4668,-4.4712,-4.4721,-4.4708,-4.4742,-4.4725,-4.4761,-4.4751,-4.4821,-4.4807,-4.4817,-4.4814,-4.4866,-4.4861,-4.5039,-4.5061,-4.4897,-4.4899,-4.49,0,-4.4634,-4.4675,-4.4679,-4.47,-4.4706,-4.4739,-4.4757,-4.4734,-4.4754,-4.4768,-4.4799,-4.4829,-4.4852,-4.4908,-4.4901,-4.4927,-4.4914,-4.4974,-4.4918,-4.4923,-4.4914,-4.4912,-4.4916,-4.4986,-4.4988,-4.4989,-4.4991,0,-4.4781,-4.4772,-4.4799,-4.4824,-4.4846,-4.4864,-4.4879,-4.4898,-4.4874,-4.4898,-4.4932,-4.495,-4.4985,-4.5015,-4.5038,-4.5041,-4.5012,-4.5008,-4.5022,-4.503,-4.5034,-4.5032,-4.4848,-4.5005,-4.5003,-4.5002,-4.5001,-4.5001,-4.489,-4.4924,-4.4932,-4.4963,-4.4972,-4.4986,-4.5016,-4.5012,-4.5039,-4.5066,-4.505,-4.5089,-4.5098,-4.5125,-4.5132,-4.5161,-4.5137,-4.5157,-4.5162,-4.5167,-4.5174,-4.5029,-4.5165,-4.5165,-4.5165,-4.5164,-4.5164,0,-4.5035,-4.5038,-4.5067,-4.5089,-4.5113,-4.5083,-4.5097,-4.512,-4.5154,-4.5165,-4.5188,-4.5226,-4.5254,-4.525,-4.5275,-4.53,-4.5287,-4.5308,-4.5306,-4.5307,-4.5194,-4.518,-4.5317,-4.5317,-4.5317,-4.5317,-4.5317,-4.5317,-4.5114,-4.5169,-4.516,-4.5218,-4.522,-4.5258,-4.5269,-4.5282,-4.529,-4.5334,-4.5357,-4.5354,-4.5358,-4.5383,-4.5408,-4.5406,-4.5417,-4.5442,-4.5435,-4.533,-4.5315,-4.53,-4.5287,-4.5445,-4.5445,-4.5545,-4.5546,-4.5547]}]]